Burnet, TX

3:12 AM CDT on May 24, 2017 (GMT -0500)
Burnet Municipal-Craddock

Weather History for KBMQ - November, 2012

Change the Weather History Date:

Sunday, November 18, 2012

  Actual Average Record
Temperature  
Mean Temperature 58 °F -  
Max Temperature 68 °F 65 °F 77 °F (1999)
Min Temperature 48 °F 45 °F 27 °F (2014)
Degree Days  
Heating Degree Days 7    
Growing Degree Days 8 (Base 50)    
Moisture  
Dew Point 43 °F    
Average Humidity 57    
Maximum Humidity 77    
Minimum Humidity 42    
Precipitation  
Precipitation 0.00 in - - ()
Sea Level Pressure  
Sea Level Pressure 30.23 in    
Wind  
Wind Speed 4 mph (SSE)    
Max Wind Speed 15 mph    
Max Gust Speed 21 mph    
Visibility 10 miles    
Events      
Averages and records for this station are not official NWS values.
T = Trace of Precipitation, MM = Missing Value Source: NWS Daily Summary

Daily Weather History Graph

Daily Weather History Graph

Search for Another Location

Airport or City:

Trip Planner

Search our weather history database for the weather conditions in past years. The results will help you decide how hot, cold, wet, or windy it might be!

Date:

Astronomy

Nov. 18, 2012 Rise Set
Actual Time 7:02 AM CST 5:33 PM CST
Civil Twilight 6:36 AM CST 5:59 PM CST
Nautical Twilight 6:07 AM CST 6:28 PM CST
Astronomical Twilight 5:38 AM CST 6:57 PM CST
Moon 11:34 AM CST (11/18) 10:49 PM CST (11/18)
Length of Visible Light 11h 22m
Length of Day
10h 31m
Waxing Crescent, 30% of the Moon is Illuminated
Nov 18
Waxing Crescent
Nov 20
First Quarter
Nov 28
Full
Dec 6
Last Quarter
Dec 13
New

Hourly Weather History & Observations

Time (CST) Temp. Dew Point Humidity Pressure Visibility Wind Dir Wind Speed Gust Speed Precip Events Conditions
2:53 AM 48.9 °F 33.1 °F 54% 30.25 in 10.0 mi ESE 3.5 mph - N/A   Clear
3:53 AM 50.0 °F 37.9 °F 63% 30.25 in 10.0 mi Calm Calm - N/A   Clear
4:53 AM 48.0 °F 37.9 °F 68% 30.25 in 10.0 mi Calm Calm - N/A   Clear
5:53 AM 50.0 °F 39.9 °F 68% 30.26 in 10.0 mi Calm Calm - N/A   Clear
6:53 AM 48.0 °F 41.0 °F 77% 30.27 in 10.0 mi Calm Calm - N/A   Clear
7:53 AM 50.0 °F 43.0 °F 77% 30.28 in 8.0 mi Calm Calm - N/A   Clear
8:53 AM 55.0 °F 48.0 °F 77% 30.28 in 10.0 mi SSE 6.9 mph - N/A   Clear
9:53 AM 59.0 °F 46.9 °F 64% 30.29 in 10.0 mi SSE 6.9 mph - N/A   Clear
10:53 AM 63.0 °F 42.1 °F 46% 30.29 in 10.0 mi South 11.5 mph - N/A   Clear
11:53 AM 64.9 °F 43.0 °F 45% 30.25 in 10.0 mi SSE 8.1 mph 16.1 mph N/A   Clear
12:53 PM 68.0 °F 45.0 °F 43% 30.22 in 10.0 mi South 15.0 mph 20.7 mph N/A   Clear
1:53 PM 68.0 °F 44.1 °F 42% 30.20 in 10.0 mi South 11.5 mph 17.3 mph N/A   Clear
2:53 PM 68.0 °F 44.1 °F 42% 30.18 in 10.0 mi South 11.5 mph 17.3 mph N/A   Clear
3:53 PM 68.0 °F 44.1 °F 42% 30.18 in 10.0 mi SSE 5.8 mph - N/A   Clear
4:53 PM 68.0 °F 44.1 °F 42% 30.19 in 10.0 mi SSE 5.8 mph - N/A   Clear
5:53 PM 66.0 °F 44.1 °F 45% 30.21 in 10.0 mi SSW 5.8 mph - N/A   Clear
6:53 PM 63.0 °F 45.0 °F 52% 30.22 in 10.0 mi Calm Calm - N/A   Clear
7:53 PM 62.1 °F 46.0 °F 56% 30.24 in 10.0 mi Calm Calm - N/A   Mostly Cloudy
8:53 PM 61.0 °F 45.0 °F 56% 30.17 in 10.0 mi East 9.2 mph - N/A   Clear
9:53 PM 60.1 °F 45.0 °F 57% 30.22 in 10.0 mi Calm Calm - N/A   Partly Cloudy
10:53 PM 60.1 °F 46.9 °F 62% 30.22 in 10.0 mi South 3.5 mph - N/A   Clear
11:53 PM 55.9 °F 46.0 °F 69% 30.22 in 10.0 mi Calm Calm - N/A   Clear